Year,Month,Day,Hour,Minute,Value (Times are PST for temperature in C)
2007,07,15,00,00,19.80
2007,07,15,00,01,19.80
2007,07,15,00,02,19.80
2007,07,15,00,03,19.70
2007,07,15,00,04,19.70
2007,07,15,00,05,19.70
2007,07,15,00,06,19.70
2007,07,15,00,07,19.70
2007,07,15,00,08,19.70
2007,07,15,00,09,19.70
2007,07,15,00,10,19.70
2007,07,15,00,11,19.60
2007,07,15,00,12,19.60
2007,07,15,00,13,19.60
2007,07,15,00,14,19.60
2007,07,15,00,15,19.60
2007,07,15,00,16,19.60
2007,07,15,00,17,19.50
2007,07,15,00,18,19.50
2007,07,15,00,19,19.50
2007,07,15,00,20,19.40
2007,07,15,00,21,19.40
2007,07,15,00,22,19.40
2007,07,15,00,23,19.40
2007,07,15,00,24,19.40
2007,07,15,00,25,19.30
2007,07,15,00,26,19.30
2007,07,15,00,27,19.30
2007,07,15,00,28,19.30
2007,07,15,00,29,19.30
2007,07,15,00,30,19.20
2007,07,15,00,31,19.20
2007,07,15,00,32,19.20
2007,07,15,00,33,19.20
2007,07,15,00,34,19.10
2007,07,15,00,35,19.10
2007,07,15,00,36,19.10
2007,07,15,00,37,19.10
2007,07,15,00,38,19.00
2007,07,15,00,39,19.00
2007,07,15,00,40,18.90
2007,07,15,00,41,18.90
2007,07,15,00,42,18.90
2007,07,15,00,43,18.80
2007,07,15,00,44,18.80
2007,07,15,00,45,18.80
2007,07,15,00,46,18.70
2007,07,15,00,47,18.70
2007,07,15,00,48,18.60
2007,07,15,00,49,18.60
2007,07,15,00,50,18.50
2007,07,15,00,51,18.50
2007,07,15,00,52,18.40
2007,07,15,00,53,18.40
2007,07,15,00,54,18.40
2007,07,15,00,55,18.40
2007,07,15,00,56,18.40
2007,07,15,00,57,18.30
2007,07,15,00,58,18.30
2007,07,15,00,59,18.30
2007,07,15,01,00,18.30
2007,07,15,01,01,18.30
2007,07,15,01,02,18.30
2007,07,15,01,03,18.30
2007,07,15,01,04,18.20
2007,07,15,01,05,18.20
2007,07,15,01,06,18.20
2007,07,15,01,07,18.20
2007,07,15,01,08,18.20
2007,07,15,01,09,18.20
2007,07,15,01,10,18.10
2007,07,15,01,11,18.10
2007,07,15,01,12,18.10
2007,07,15,01,13,18.10
2007,07,15,01,14,18.10
2007,07,15,01,15,18.10
2007,07,15,01,16,18.10
2007,07,15,01,17,18.10
2007,07,15,01,18,18.10
2007,07,15,01,19,18.10
2007,07,15,01,20,18.10
2007,07,15,01,21,18.00
2007,07,15,01,22,18.10
2007,07,15,01,23,18.00
2007,07,15,01,24,18.00
2007,07,15,01,25,18.00
2007,07,15,01,26,18.00
2007,07,15,01,27,18.00
2007,07,15,01,28,18.00
2007,07,15,01,29,18.00
2007,07,15,01,30,18.00
2007,07,15,01,31,18.00
2007,07,15,01,32,18.00
2007,07,15,01,33,18.00
2007,07,15,01,34,18.00
2007,07,15,01,35,18.00
2007,07,15,01,36,18.00
2007,07,15,01,37,18.00
2007,07,15,01,38,18.00
2007,07,15,01,39,18.00
2007,07,15,01,40,18.00
2007,07,15,01,41,18.00
2007,07,15,01,42,17.90
2007,07,15,01,43,17.90
2007,07,15,01,44,17.90
2007,07,15,01,45,17.90
2007,07,15,01,46,17.90
2007,07,15,01,47,17.90
2007,07,15,01,48,17.90
2007,07,15,01,49,17.90
2007,07,15,01,50,17.90
2007,07,15,01,51,17.90
2007,07,15,01,52,17.90
2007,07,15,01,53,17.90
2007,07,15,01,54,17.90
2007,07,15,01,55,17.90
2007,07,15,01,56,17.90
2007,07,15,01,57,17.90
2007,07,15,01,58,17.90
2007,07,15,01,59,17.80
2007,07,15,02,00,17.80
2007,07,15,02,01,17.80
2007,07,15,02,02,17.80
2007,07,15,02,03,17.80
2007,07,15,02,04,17.80
2007,07,15,02,05,17.80
2007,07,15,02,06,17.80
2007,07,15,02,07,17.80
2007,07,15,02,08,17.80
2007,07,15,02,09,17.80
2007,07,15,02,10,17.80
2007,07,15,02,11,17.80
2007,07,15,02,12,17.80
2007,07,15,02,13,17.80
2007,07,15,02,14,17.80
2007,07,15,02,15,17.80
2007,07,15,02,16,17.80
2007,07,15,02,17,17.80
2007,07,15,02,18,17.80
2007,07,15,02,19,17.80
2007,07,15,02,20,17.80
2007,07,15,02,21,17.80
2007,07,15,02,22,17.80
2007,07,15,02,23,17.80
2007,07,15,02,24,17.80
2007,07,15,02,25,17.80
2007,07,15,02,26,17.70
2007,07,15,02,27,17.70
2007,07,15,02,28,17.70
2007,07,15,02,29,17.70
2007,07,15,02,30,17.70
2007,07,15,02,31,17.70
2007,07,15,02,32,17.70
2007,07,15,02,33,17.70
2007,07,15,02,34,17.70
2007,07,15,02,35,17.70
2007,07,15,02,36,17.70
2007,07,15,02,37,17.70
2007,07,15,02,38,17.70
2007,07,15,02,39,17.70
2007,07,15,02,40,17.70
2007,07,15,02,41,17.70
2007,07,15,02,42,17.70
2007,07,15,02,43,17.70
2007,07,15,02,44,17.60
2007,07,15,02,45,17.60
2007,07,15,02,46,17.60
2007,07,15,02,47,17.60
2007,07,15,02,48,17.60
2007,07,15,02,49,17.60
2007,07,15,02,50,17.60
2007,07,15,02,51,17.60
2007,07,15,02,52,17.60
2007,07,15,02,53,17.50
2007,07,15,02,54,17.50
2007,07,15,02,55,17.50
2007,07,15,02,56,17.50
2007,07,15,02,57,17.50
2007,07,15,02,58,17.40
2007,07,15,02,59,17.40
2007,07,15,03,00,17.40
2007,07,15,03,01,17.40
2007,07,15,03,02,17.40
2007,07,15,03,03,17.40
2007,07,15,03,04,17.40
2007,07,15,03,05,17.40
2007,07,15,03,06,17.40
2007,07,15,03,07,17.30
2007,07,15,03,08,17.30
2007,07,15,03,09,17.30
2007,07,15,03,10,17.30
2007,07,15,03,11,17.30
2007,07,15,03,12,17.30
2007,07,15,03,13,17.30
2007,07,15,03,14,17.30
2007,07,15,03,15,17.30
2007,07,15,03,16,17.30
2007,07,15,03,17,17.30
2007,07,15,03,18,17.30
2007,07,15,03,19,17.30
2007,07,15,03,20,17.30
2007,07,15,03,21,17.30
2007,07,15,03,22,17.30
2007,07,15,03,23,17.30
2007,07,15,03,24,17.30
2007,07,15,03,25,17.30
2007,07,15,03,26,17.30
2007,07,15,03,27,17.30
2007,07,15,03,28,17.30
2007,07,15,03,29,17.30
2007,07,15,03,30,17.30
2007,07,15,03,31,17.30
2007,07,15,03,32,17.30
2007,07,15,03,33,17.30
2007,07,15,03,34,17.30
2007,07,15,03,35,17.30
2007,07,15,03,36,17.30
2007,07,15,03,37,17.30
2007,07,15,03,38,17.30
2007,07,15,03,39,17.30
2007,07,15,03,40,17.30
2007,07,15,03,41,17.30
2007,07,15,03,42,17.30
2007,07,15,03,43,17.30
2007,07,15,03,44,17.30
2007,07,15,03,45,17.30
2007,07,15,03,46,17.30
2007,07,15,03,47,17.30
2007,07,15,03,48,17.30
2007,07,15,03,49,17.30
2007,07,15,03,50,17.30
2007,07,15,03,51,17.30
2007,07,15,03,52,17.30
2007,07,15,03,53,17.30
2007,07,15,03,54,17.30
2007,07,15,03,55,17.30
2007,07,15,03,56,17.30
2007,07,15,03,57,17.30
2007,07,15,03,58,17.30
2007,07,15,03,59,17.30
2007,07,15,04,00,17.30
2007,07,15,04,01,17.30
2007,07,15,04,02,17.30
2007,07,15,04,03,17.20
2007,07,15,04,04,17.20
2007,07,15,04,05,17.20
2007,07,15,04,06,17.20
2007,07,15,04,07,17.20
2007,07,15,04,08,17.20
2007,07,15,04,09,17.20
2007,07,15,04,10,17.10
2007,07,15,04,11,17.10
2007,07,15,04,12,17.10
2007,07,15,04,13,17.10
2007,07,15,04,14,17.00
2007,07,15,04,15,17.00
2007,07,15,04,16,17.00
2007,07,15,04,17,16.90
2007,07,15,04,18,16.90
2007,07,15,04,19,16.90
2007,07,15,04,20,16.80
2007,07,15,04,21,16.80
2007,07,15,04,22,16.80
2007,07,15,04,23,16.70
2007,07,15,04,24,16.70
2007,07,15,04,25,16.70
2007,07,15,04,26,16.70
2007,07,15,04,27,16.70
2007,07,15,04,28,16.60
2007,07,15,04,29,16.60
2007,07,15,04,30,16.60
2007,07,15,04,31,16.50
2007,07,15,04,32,16.50
2007,07,15,04,33,16.50
2007,07,15,04,34,16.40
2007,07,15,04,35,16.40
2007,07,15,04,36,16.40
2007,07,15,04,37,16.40
2007,07,15,04,38,16.40
2007,07,15,04,39,16.40
2007,07,15,04,40,16.30
2007,07,15,04,41,16.40
2007,07,15,04,42,16.40
2007,07,15,04,43,16.40
2007,07,15,04,44,16.40
2007,07,15,04,45,16.40
2007,07,15,04,46,16.50
2007,07,15,04,47,16.50
2007,07,15,04,48,16.50
2007,07,15,04,49,16.50
2007,07,15,04,50,16.60
2007,07,15,04,51,16.60
2007,07,15,04,52,16.60
2007,07,15,04,53,16.70
2007,07,15,04,54,16.90
2007,07,15,04,55,17.10
2007,07,15,04,56,17.20
2007,07,15,04,57,17.30
2007,07,15,04,58,17.30
2007,07,15,04,59,17.40
2007,07,15,05,00,17.50
2007,07,15,05,01,17.60
2007,07,15,05,02,17.60
2007,07,15,05,03,17.80
2007,07,15,05,04,17.90
2007,07,15,05,05,18.10
2007,07,15,05,06,18.10
2007,07,15,05,07,18.20
2007,07,15,05,08,18.20
2007,07,15,05,09,18.30
2007,07,15,05,10,18.30
2007,07,15,05,11,18.30
2007,07,15,05,12,18.30
2007,07,15,05,13,18.30
2007,07,15,05,14,18.30
2007,07,15,05,15,18.20
2007,07,15,05,16,18.20
2007,07,15,05,17,18.20
2007,07,15,05,18,18.20
2007,07,15,05,19,18.20
2007,07,15,05,20,18.20
2007,07,15,05,21,18.20
2007,07,15,05,22,18.20
2007,07,15,05,23,18.20
2007,07,15,05,24,18.20
2007,07,15,05,25,18.20
2007,07,15,05,26,18.30
2007,07,15,05,27,18.30
2007,07,15,05,28,18.40
2007,07,15,05,29,18.50
2007,07,15,05,30,18.60
2007,07,15,05,31,18.60
2007,07,15,05,32,18.60
2007,07,15,05,33,18.60
2007,07,15,05,34,18.60
2007,07,15,05,35,18.60
2007,07,15,05,36,18.50
2007,07,15,05,37,18.50
2007,07,15,05,38,18.40
2007,07,15,05,39,18.40
2007,07,15,05,40,18.40
2007,07,15,05,41,18.30
2007,07,15,05,42,18.30
2007,07,15,05,43,18.30
2007,07,15,05,44,18.30
2007,07,15,05,45,18.20
2007,07,15,05,46,18.20
2007,07,15,05,47,18.30
2007,07,15,05,48,18.30
2007,07,15,05,49,18.40
2007,07,15,05,50,18.40
2007,07,15,05,51,18.50
2007,07,15,05,52,18.50
2007,07,15,05,53,18.60
2007,07,15,05,54,18.60
2007,07,15,05,55,18.60
2007,07,15,05,56,18.70
2007,07,15,05,57,18.70
2007,07,15,05,58,18.80
2007,07,15,05,59,18.90
2007,07,15,06,00,18.90
2007,07,15,06,01,19.00
2007,07,15,06,02,19.10
2007,07,15,06,03,19.10
2007,07,15,06,04,19.10
2007,07,15,06,05,19.10
2007,07,15,06,06,19.20
2007,07,15,06,07,19.20
2007,07,15,06,08,19.20
2007,07,15,06,09,19.20
2007,07,15,06,10,19.20
2007,07,15,06,11,19.20
2007,07,15,06,12,19.20
2007,07,15,06,13,19.20
2007,07,15,06,14,19.20
2007,07,15,06,15,19.20
2007,07,15,06,16,19.20
2007,07,15,06,17,19.20
2007,07,15,06,18,19.20
2007,07,15,06,19,19.20
2007,07,15,06,20,19.20
2007,07,15,06,21,19.20
2007,07,15,06,22,19.10
2007,07,15,06,23,19.10
2007,07,15,06,24,19.10
2007,07,15,06,25,19.10
2007,07,15,06,26,19.10
2007,07,15,06,27,19.10
2007,07,15,06,28,19.10
2007,07,15,06,29,19.10
2007,07,15,06,30,19.10
2007,07,15,06,31,19.10
2007,07,15,06,32,19.00
2007,07,15,06,33,19.00
2007,07,15,06,34,19.00
2007,07,15,06,35,19.00
2007,07,15,06,36,19.10
2007,07,15,06,37,19.10
2007,07,15,06,38,19.10
2007,07,15,06,39,19.10
2007,07,15,06,40,19.10
2007,07,15,06,41,19.10
2007,07,15,06,42,19.10
2007,07,15,06,43,19.10
2007,07,15,06,44,19.10
2007,07,15,06,45,19.00
2007,07,15,06,46,19.00
2007,07,15,06,47,19.10
2007,07,15,06,48,19.10
2007,07,15,06,49,19.10
2007,07,15,06,50,19.10
2007,07,15,06,51,19.10
2007,07,15,06,52,19.20
2007,07,15,06,53,19.20
2007,07,15,06,54,19.20
2007,07,15,06,55,19.20
2007,07,15,06,56,19.20
2007,07,15,06,57,19.30
2007,07,15,06,58,19.30
2007,07,15,06,59,19.30
2007,07,15,07,00,19.30
2007,07,15,07,01,19.30
2007,07,15,07,02,19.30
2007,07,15,07,03,19.30
2007,07,15,07,04,19.30
2007,07,15,07,05,19.30
2007,07,15,07,06,19.30
2007,07,15,07,07,19.30
2007,07,15,07,08,19.30
2007,07,15,07,09,19.30
2007,07,15,07,10,19.20
2007,07,15,07,11,19.20
2007,07,15,07,12,19.20
2007,07,15,07,13,19.20
2007,07,15,07,14,19.20
2007,07,15,07,15,19.20
2007,07,15,07,16,19.20
2007,07,15,07,17,19.20
2007,07,15,07,18,19.20
2007,07,15,07,19,19.20
2007,07,15,07,20,19.20
2007,07,15,07,21,19.20
2007,07,15,07,22,19.30
2007,07,15,07,23,19.30
2007,07,15,07,24,19.30
2007,07,15,07,25,19.30
2007,07,15,07,26,19.30
2007,07,15,07,27,19.40
2007,07,15,07,28,19.40
2007,07,15,07,29,19.50
2007,07,15,07,30,19.60
2007,07,15,07,31,19.60
2007,07,15,07,32,19.70
2007,07,15,07,33,19.70
2007,07,15,07,34,19.80
2007,07,15,07,35,19.80
2007,07,15,07,36,19.90
2007,07,15,07,37,19.90
2007,07,15,07,38,19.90
2007,07,15,07,39,19.90
2007,07,15,07,40,19.90
2007,07,15,07,41,20.00
2007,07,15,07,42,20.00
2007,07,15,07,43,20.00
2007,07,15,07,44,20.00
2007,07,15,07,45,20.10
2007,07,15,07,46,20.10
2007,07,15,07,47,20.10
2007,07,15,07,48,20.10
2007,07,15,07,49,20.20
2007,07,15,07,50,20.20
2007,07,15,07,51,20.20
2007,07,15,07,52,20.30
2007,07,15,07,53,20.30
2007,07,15,07,54,20.30
2007,07,15,07,55,20.40
2007,07,15,07,56,20.40
2007,07,15,07,57,20.50
2007,07,15,07,58,20.60
2007,07,15,07,59,20.60
2007,07,15,08,00,20.70
2007,07,15,08,01,20.70
2007,07,15,08,02,20.70
2007,07,15,08,03,20.80
2007,07,15,08,04,20.80
2007,07,15,08,05,20.80
2007,07,15,08,06,20.80
2007,07,15,08,07,20.80
2007,07,15,08,08,20.80
2007,07,15,08,09,20.80
2007,07,15,08,10,20.80
2007,07,15,08,11,20.80
2007,07,15,08,12,20.80
2007,07,15,08,13,20.80
2007,07,15,08,14,20.80
2007,07,15,08,15,20.80
2007,07,15,08,16,20.80
2007,07,15,08,17,20.80
2007,07,15,08,18,20.70
2007,07,15,08,19,20.70
2007,07,15,08,20,20.70
2007,07,15,08,21,20.70
2007,07,15,08,22,20.70
2007,07,15,08,23,20.70
2007,07,15,08,24,20.70
2007,07,15,08,25,20.80
2007,07,15,08,26,20.80
2007,07,15,08,27,20.80
2007,07,15,08,28,20.80
2007,07,15,08,29,20.80
2007,07,15,08,30,20.80
2007,07,15,08,31,20.90
2007,07,15,08,32,20.90
2007,07,15,08,33,21.00
2007,07,15,08,34,21.00
2007,07,15,08,35,21.10
2007,07,15,08,36,21.10
2007,07,15,08,37,21.20
2007,07,15,08,38,21.20
2007,07,15,08,39,21.20
2007,07,15,08,40,21.20
2007,07,15,08,41,21.30
2007,07,15,08,42,21.30
2007,07,15,08,43,21.30
2007,07,15,08,44,21.40
2007,07,15,08,45,21.40
2007,07,15,08,46,21.50
2007,07,15,08,47,21.50
2007,07,15,08,48,21.50
2007,07,15,08,49,21.50
2007,07,15,08,50,21.40
2007,07,15,08,51,21.40
2007,07,15,08,52,21.40
2007,07,15,08,53,21.40
2007,07,15,08,54,21.30
2007,07,15,08,55,21.30
2007,07,15,08,56,21.30
2007,07,15,08,57,21.20
2007,07,15,08,58,21.10
2007,07,15,08,59,21.10
2007,07,15,09,00,21.00
2007,07,15,09,01,21.00
2007,07,15,09,02,20.90
2007,07,15,09,03,20.90
2007,07,15,09,04,20.90
2007,07,15,09,05,20.90
2007,07,15,09,06,20.90
2007,07,15,09,07,21.00
2007,07,15,09,08,21.00
2007,07,15,09,09,21.10
2007,07,15,09,10,21.10
2007,07,15,09,11,21.20
2007,07,15,09,12,21.20
2007,07,15,09,13,21.30
2007,07,15,09,14,21.30
2007,07,15,09,15,21.30
2007,07,15,09,16,21.30
2007,07,15,09,17,21.30
2007,07,15,09,18,21.40
2007,07,15,09,19,21.40
2007,07,15,09,20,21.40
2007,07,15,09,21,21.40
2007,07,15,09,22,21.40
2007,07,15,09,23,21.40
2007,07,15,09,24,21.30
2007,07,15,09,25,21.30
2007,07,15,09,26,21.20
2007,07,15,09,27,21.10
2007,07,15,09,28,21.10
2007,07,15,09,29,21.10
2007,07,15,09,30,21.10
2007,07,15,09,31,21.00
2007,07,15,09,32,21.00
2007,07,15,09,33,21.00
2007,07,15,09,34,21.00
2007,07,15,09,35,21.00
2007,07,15,09,36,21.00
2007,07,15,09,37,21.00
2007,07,15,09,38,21.10
2007,07,15,09,39,21.10
2007,07,15,09,40,21.20
2007,07,15,09,41,21.30
2007,07,15,09,42,21.40
2007,07,15,09,43,21.50
2007,07,15,09,44,21.70
2007,07,15,09,45,21.80
2007,07,15,09,46,21.80
2007,07,15,09,47,21.90
2007,07,15,09,48,22.00
2007,07,15,09,49,22.10
2007,07,15,09,50,22.10
2007,07,15,09,51,22.10
2007,07,15,09,52,22.20
2007,07,15,09,53,22.20
2007,07,15,09,54,22.20
2007,07,15,09,55,22.10
2007,07,15,09,56,22.00
2007,07,15,09,57,22.00
2007,07,15,09,58,21.90
2007,07,15,09,59,21.90
2007,07,15,10,00,21.90
2007,07,15,10,01,21.80
2007,07,15,10,02,21.90
2007,07,15,10,03,21.90
2007,07,15,10,04,21.90
2007,07,15,10,05,22.00
2007,07,15,10,06,22.10
2007,07,15,10,07,22.10
2007,07,15,10,08,22.20
2007,07,15,10,09,22.20
2007,07,15,10,10,22.30
2007,07,15,10,11,22.30
2007,07,15,10,12,22.40
2007,07,15,10,13,22.40
2007,07,15,10,14,22.50
2007,07,15,10,15,22.60
2007,07,15,10,16,22.60
2007,07,15,10,17,22.70
2007,07,15,10,18,22.70
2007,07,15,10,19,22.70
2007,07,15,10,20,22.70
2007,07,15,10,21,22.70
2007,07,15,10,22,22.60
2007,07,15,10,23,22.60
2007,07,15,10,24,22.60
2007,07,15,10,25,22.50
2007,07,15,10,26,22.60
2007,07,15,10,27,22.60
2007,07,15,10,28,22.50
2007,07,15,10,29,22.60
2007,07,15,10,30,22.60
2007,07,15,10,31,22.60
2007,07,15,10,32,22.60
2007,07,15,10,33,22.60
2007,07,15,10,34,22.40
2007,07,15,10,35,22.20
2007,07,15,10,36,22.10
2007,07,15,10,37,22.10
2007,07,15,10,38,22.10
2007,07,15,10,39,22.00
2007,07,15,10,40,22.00
2007,07,15,10,41,22.00
2007,07,15,10,42,21.90
2007,07,15,10,43,21.80
2007,07,15,10,44,21.80
2007,07,15,10,45,21.70
2007,07,15,10,46,21.70
2007,07,15,10,47,21.70
2007,07,15,10,48,21.70
2007,07,15,10,49,21.60
2007,07,15,10,50,21.60
2007,07,15,10,51,21.60
2007,07,15,10,52,21.60
2007,07,15,10,53,21.60
2007,07,15,10,54,21.60
2007,07,15,10,55,21.60
2007,07,15,10,56,21.60
2007,07,15,10,57,21.60
2007,07,15,10,58,21.70
2007,07,15,10,59,21.80
2007,07,15,11,00,21.80
2007,07,15,11,01,21.90
2007,07,15,11,02,22.00
2007,07,15,11,03,22.10
2007,07,15,11,04,22.20
2007,07,15,11,05,22.40
2007,07,15,11,06,22.50
2007,07,15,11,07,22.50
2007,07,15,11,08,22.60
2007,07,15,11,09,22.70
2007,07,15,11,10,22.80
2007,07,15,11,11,22.90
2007,07,15,11,12,22.90
2007,07,15,11,13,22.80
2007,07,15,11,14,22.80
2007,07,15,11,15,22.80
2007,07,15,11,16,22.70
2007,07,15,11,17,22.60
2007,07,15,11,18,22.50
2007,07,15,11,19,22.40
2007,07,15,11,20,22.40
2007,07,15,11,21,22.40
2007,07,15,11,22,22.40
2007,07,15,11,23,22.40
2007,07,15,11,24,22.40
2007,07,15,11,25,22.40
2007,07,15,11,26,22.50
2007,07,15,11,27,22.50
2007,07,15,11,28,22.40
2007,07,15,11,29,22.20
2007,07,15,11,30,22.10
2007,07,15,11,31,21.90
2007,07,15,11,32,21.80
2007,07,15,11,33,21.70
2007,07,15,11,34,21.70
2007,07,15,11,35,21.50
2007,07,15,11,36,21.40
2007,07,15,11,37,21.40
2007,07,15,11,38,21.30
2007,07,15,11,39,21.20
2007,07,15,11,40,21.20
2007,07,15,11,41,21.10
2007,07,15,11,42,21.10
2007,07,15,11,43,21.10
2007,07,15,11,44,21.10
2007,07,15,11,45,21.10
2007,07,15,11,46,21.10
2007,07,15,11,47,21.10
2007,07,15,11,48,21.20
2007,07,15,11,49,21.10
2007,07,15,11,50,21.10
2007,07,15,11,51,21.00
2007,07,15,11,52,21.00
2007,07,15,11,53,20.90
2007,07,15,11,54,20.90
2007,07,15,11,55,20.90
2007,07,15,11,56,20.90
2007,07,15,11,57,21.00
2007,07,15,11,58,21.10
2007,07,15,11,59,21.10
2007,07,15,12,00,21.20
2007,07,15,12,01,21.20
2007,07,15,12,02,21.20
2007,07,15,12,03,21.20
2007,07,15,12,04,21.30
2007,07,15,12,05,21.30
2007,07,15,12,06,21.30
2007,07,15,12,07,21.30
2007,07,15,12,08,21.30
2007,07,15,12,09,21.30
2007,07,15,12,10,21.30
2007,07,15,12,11,21.30
2007,07,15,12,12,21.30
2007,07,15,12,13,21.30
2007,07,15,12,14,21.30
2007,07,15,12,15,21.30
2007,07,15,12,16,21.30
2007,07,15,12,17,21.30
2007,07,15,12,18,21.30
2007,07,15,12,19,21.30
2007,07,15,12,20,21.40
2007,07,15,12,21,21.40
2007,07,15,12,22,21.50
2007,07,15,12,23,21.70
2007,07,15,12,24,21.80
2007,07,15,12,25,21.80
2007,07,15,12,26,21.90
2007,07,15,12,27,21.90
2007,07,15,12,28,22.00
2007,07,15,12,29,22.10
2007,07,15,12,30,22.20
2007,07,15,12,31,22.30
2007,07,15,12,32,22.40
2007,07,15,12,33,22.40
2007,07,15,12,34,22.50
2007,07,15,12,35,22.50
2007,07,15,12,36,22.60
2007,07,15,12,37,22.60
2007,07,15,12,38,22.60
2007,07,15,12,39,22.60
2007,07,15,12,40,22.60
2007,07,15,12,41,22.50
2007,07,15,12,42,22.50
2007,07,15,12,43,22.50
2007,07,15,12,44,22.40
2007,07,15,12,45,22.40
2007,07,15,12,46,22.40
2007,07,15,12,47,22.30
2007,07,15,12,48,22.30
2007,07,15,12,49,22.20
2007,07,15,12,50,22.10
2007,07,15,12,51,22.00
2007,07,15,12,52,21.90
2007,07,15,12,53,21.80
2007,07,15,12,54,21.80
2007,07,15,12,55,21.90
2007,07,15,12,56,21.90
2007,07,15,12,57,21.90
2007,07,15,12,58,21.90
2007,07,15,12,59,22.00
2007,07,15,13,00,22.00
2007,07,15,13,01,22.10
2007,07,15,13,02,22.20
2007,07,15,13,03,22.30
2007,07,15,13,04,22.30
2007,07,15,13,05,22.30
2007,07,15,13,06,22.40
2007,07,15,13,07,22.50
2007,07,15,13,08,22.60
2007,07,15,13,09,22.60
2007,07,15,13,10,22.50
2007,07,15,13,11,22.40
2007,07,15,13,12,22.30
2007,07,15,13,13,22.20
2007,07,15,13,14,22.20
2007,07,15,13,15,22.10
2007,07,15,13,16,22.10
2007,07,15,13,17,22.20
2007,07,15,13,18,22.20
2007,07,15,13,19,22.20
2007,07,15,13,20,22.20
2007,07,15,13,21,22.10
2007,07,15,13,22,22.00
2007,07,15,13,23,21.90
2007,07,15,13,24,21.80
2007,07,15,13,25,21.80
2007,07,15,13,26,21.70
2007,07,15,13,27,21.60
2007,07,15,13,28,21.60
2007,07,15,13,29,21.50
2007,07,15,13,30,21.40
2007,07,15,13,31,21.40
2007,07,15,13,32,21.40
2007,07,15,13,33,21.30
2007,07,15,13,34,21.30
2007,07,15,13,35,21.30
2007,07,15,13,36,21.30
2007,07,15,13,37,21.30
2007,07,15,13,38,21.40
2007,07,15,13,39,21.40
2007,07,15,13,40,21.50
2007,07,15,13,41,21.60
2007,07,15,13,42,21.60
2007,07,15,13,43,21.70
2007,07,15,13,44,21.80
2007,07,15,13,45,21.80
2007,07,15,13,46,21.90
2007,07,15,13,47,22.00
2007,07,15,13,48,22.10
2007,07,15,13,49,22.10
2007,07,15,13,50,22.10
2007,07,15,13,51,22.20
2007,07,15,13,52,22.20
2007,07,15,13,53,22.20
2007,07,15,13,54,22.20
2007,07,15,13,55,22.20
2007,07,15,13,56,22.20
2007,07,15,13,57,22.30
2007,07,15,13,58,22.30
2007,07,15,13,59,22.30
2007,07,15,14,00,22.30
2007,07,15,14,01,22.30
2007,07,15,14,02,22.40
2007,07,15,14,03,22.40
2007,07,15,14,04,22.50
2007,07,15,14,05,22.60
2007,07,15,14,06,22.70
2007,07,15,14,07,22.70
2007,07,15,14,08,22.70
2007,07,15,14,09,22.60
2007,07,15,14,10,22.60
2007,07,15,14,11,22.60
2007,07,15,14,12,22.60
2007,07,15,14,13,22.50
2007,07,15,14,14,22.40
2007,07,15,14,15,22.30
2007,07,15,14,16,22.30
2007,07,15,14,17,22.20
2007,07,15,14,18,22.30
2007,07,15,14,19,22.30
2007,07,15,14,20,22.30
2007,07,15,14,21,22.30
2007,07,15,14,22,22.30
2007,07,15,14,23,22.30
2007,07,15,14,24,22.40
2007,07,15,14,25,22.40
2007,07,15,14,26,22.50
2007,07,15,14,27,22.50
2007,07,15,14,28,22.40
2007,07,15,14,29,22.30
2007,07,15,14,30,22.20
2007,07,15,14,31,22.20
2007,07,15,14,32,22.20
2007,07,15,14,33,22.20
2007,07,15,14,34,22.20
2007,07,15,14,35,22.20
2007,07,15,14,36,22.20
2007,07,15,14,37,22.20
2007,07,15,14,38,22.30
2007,07,15,14,39,22.30
2007,07,15,14,40,22.30
2007,07,15,14,41,22.30
2007,07,15,14,42,22.30
2007,07,15,14,43,22.30
2007,07,15,14,44,22.10
2007,07,15,14,45,22.00
2007,07,15,14,46,21.90
2007,07,15,14,47,21.90
2007,07,15,14,48,21.80
2007,07,15,14,49,21.80
2007,07,15,14,50,21.80
2007,07,15,14,51,21.80
2007,07,15,14,52,21.80
2007,07,15,14,53,21.80
2007,07,15,14,54,21.80
2007,07,15,14,55,21.80
2007,07,15,14,56,21.80
2007,07,15,14,57,21.80
2007,07,15,14,58,21.70
2007,07,15,14,59,21.70
2007,07,15,15,00,21.80
2007,07,15,15,01,21.80
2007,07,15,15,02,22.00
2007,07,15,15,03,22.10
2007,07,15,15,04,22.10
2007,07,15,15,05,22.20
2007,07,15,15,06,22.30
2007,07,15,15,07,22.30
2007,07,15,15,08,22.30
2007,07,15,15,09,22.20
2007,07,15,15,10,22.10
2007,07,15,15,11,22.10
2007,07,15,15,12,22.10
2007,07,15,15,13,22.10
2007,07,15,15,14,22.10
2007,07,15,15,15,22.10
2007,07,15,15,16,22.10
2007,07,15,15,17,22.10
2007,07,15,15,18,22.10
2007,07,15,15,19,22.10
2007,07,15,15,20,22.10
2007,07,15,15,21,22.00
2007,07,15,15,22,22.00
2007,07,15,15,23,22.00
2007,07,15,15,24,22.10
2007,07,15,15,25,22.10
2007,07,15,15,26,22.10
2007,07,15,15,27,22.10
2007,07,15,15,28,22.10
2007,07,15,15,29,22.00
2007,07,15,15,30,22.00
2007,07,15,15,31,21.90
2007,07,15,15,32,21.90
2007,07,15,15,33,21.80
2007,07,15,15,34,21.80
2007,07,15,15,35,21.80
2007,07,15,15,36,21.90
2007,07,15,15,37,21.90
2007,07,15,15,38,21.90
2007,07,15,15,39,21.90
2007,07,15,15,40,21.90
2007,07,15,15,41,22.00
2007,07,15,15,42,22.10
2007,07,15,15,43,22.10
2007,07,15,15,44,22.20
2007,07,15,15,45,22.20
2007,07,15,15,46,22.20
2007,07,15,15,47,22.20
2007,07,15,15,48,22.20
2007,07,15,15,49,22.30
2007,07,15,15,50,22.30
2007,07,15,15,51,22.30
2007,07,15,15,52,22.40
2007,07,15,15,53,22.50
2007,07,15,15,54,22.60
2007,07,15,15,55,22.70
2007,07,15,15,56,22.70
2007,07,15,15,57,22.80
2007,07,15,15,58,22.90
2007,07,15,15,59,23.10
2007,07,15,16,00,23.10
2007,07,15,16,01,23.20
2007,07,15,16,02,23.20
2007,07,15,16,03,23.10
2007,07,15,16,04,23.20
2007,07,15,16,05,23.20
2007,07,15,16,06,23.20
2007,07,15,16,07,23.10
2007,07,15,16,08,23.10
2007,07,15,16,09,23.20
2007,07,15,16,10,23.20
2007,07,15,16,11,23.20
2007,07,15,16,12,23.10
2007,07,15,16,13,23.20
2007,07,15,16,14,23.20
2007,07,15,16,15,23.20
2007,07,15,16,16,23.10
2007,07,15,16,17,23.00
2007,07,15,16,18,23.00
2007,07,15,16,19,22.90
2007,07,15,16,20,22.90
2007,07,15,16,21,22.80
2007,07,15,16,22,22.80
2007,07,15,16,23,22.80
2007,07,15,16,24,22.80
2007,07,15,16,25,22.80
2007,07,15,16,26,22.80
2007,07,15,16,27,22.80
2007,07,15,16,28,22.90
2007,07,15,16,29,22.90
2007,07,15,16,30,22.90
2007,07,15,16,31,22.80
2007,07,15,16,32,22.80
2007,07,15,16,33,22.80
2007,07,15,16,34,22.80
2007,07,15,16,35,22.80
2007,07,15,16,36,22.80
2007,07,15,16,37,22.80
2007,07,15,16,38,22.80
2007,07,15,16,39,22.70
2007,07,15,16,40,22.70
2007,07,15,16,41,22.70
2007,07,15,16,42,22.80
2007,07,15,16,43,22.80
2007,07,15,16,44,22.80
2007,07,15,16,45,22.80
2007,07,15,16,46,22.80
2007,07,15,16,47,22.80
2007,07,15,16,48,22.80
2007,07,15,16,49,22.90
2007,07,15,16,50,22.90
2007,07,15,16,51,22.90
2007,07,15,16,52,22.80
2007,07,15,16,53,22.70
2007,07,15,16,54,22.70
2007,07,15,16,55,22.70
2007,07,15,16,56,22.70
2007,07,15,16,57,22.80
2007,07,15,16,58,22.80
2007,07,15,16,59,22.90
2007,07,15,17,00,23.00
2007,07,15,17,01,23.10
2007,07,15,17,02,23.10
2007,07,15,17,03,23.20
2007,07,15,17,04,23.30
2007,07,15,17,05,23.30
2007,07,15,17,06,23.40
2007,07,15,17,07,23.50
2007,07,15,17,08,23.60
2007,07,15,17,09,23.70
2007,07,15,17,10,23.70
2007,07,15,17,11,23.80
2007,07,15,17,12,23.80
2007,07,15,17,13,23.90
2007,07,15,17,14,23.90
2007,07,15,17,15,24.00
2007,07,15,17,16,24.00
2007,07,15,17,17,24.00
2007,07,15,17,18,23.90
2007,07,15,17,19,23.70